ASTRA 2A

Last updated on Nov. 19, 2019, 4:25 a.m. UTC

1 25462U 98050A   19321.94531824 -.00000299  00000-0  00000-0 0  9994
2 25462   1.1247  95.3931 0003213 139.0556 262.6149  1.00274317 22272
UTC
Height (km)
Latitude
Longitude
Inclination
Orbital Period
UTC large
Height (km)
Speed (km/s)
/
Latitude / Longitude
Inclination (degrees)
Orbital Period (minutes)
Azimuth
Elevation
Range (km)
Doppler Factor
iOS Compass Heading
iOS Angle

Next 30 passes for location: Hong Kong

Rise time Rise Azimuth (degrees) Set time Set Azimuth (degrees) Duration Max altitude (degrees)

No matching passes for this satellites